Regional Weather Roundup
Issued by NWS

Home | Current Version | Previous Version | Graphics & Text | Print | Product List | Glossary On
Versions: 1 2 3 4 5 6 7 8 9 10 11 12 13 14 15 16 17 18 19 20 21 22 23 24 25 26 27 28 29 30 31 32 33 34 35 36 37 38 39 40 41 42 43 44 45 46 47 48 49 50
000
ASUS45 KTFX 231319
RWRMT
MONTANA HOURLY WEATHER ROUNDUP
NATIONAL WEATHER SERVICE GREAT FALLS MT
719 AM MDT WED JUL 23 2014

NOTE: "FAIR" INDICATES FEW OR NO CLOUDS BELOW 12000 FEET WITH NO
SIGNIFICANT WEATHER AND/OR OBSTRUCTIONS TO VISIBILITY.

* THESE STATIONS ARE NOT UNDER NWS QUALITY CONTROL. THEY DO NOT
   REPORT WEATHER SUCH AS PRECIPITATION OR FOG.

MTZ001>007-043-231400-
WEST OF THE DIVIDE
CITY           SKY/WX    TMP DP  RH WIND       PRES   REMARKS
KALISPELL      CLOUDY    57  55  93 N6        30.17F
MISSOULA       CLOUDY    61  57  87 SE9       30.21F
BUTTE          MOCLDY    57  48  72 W9        30.30S
MULLAN PASS    CLOUDY    50  46  86 SE9       30.24F
* ESSEX        N/A       54  51  90 E2         N/A
* LINCOLN      N/A       55  54  96 SE3G15     N/A
* LOOKOUT PASS N/A       52  52 100 S6         N/A
* POLSON       N/A       58  55  90 NE2        N/A
* RONAN APT    CLOUDY    57  55  93 N/A        N/A
* SEELEY LAKE  N/A       55  54  96 SE2G8      N/A
* THOMP F APT  CLOUDY    60  35  39 N2G13      N/A
* YAAK HILL    N/A       58  55  90 SE2        N/A
$$

MTZ008-052>055-231400-
SOUTHWEST MONTANA
CITY           SKY/WX    TMP DP  RH WIND       PRES   REMARKS
BOZEMAN        PTCLDY    59  52  78 S12       30.21S
DILLON         PTCLDY    55  48  77 SW10      30.25R
W YELLOWSTONE  MOCLDY    46  43  89 CALM      30.31S
* THREE FORKS  PTCLDY    57  18  22 N/A        N/A
* BOULDER HILL N/A       57  46  67 N10        N/A
* MONIDA PASS  N/A       54  43  67 W11        N/A
* RAYNOLDS PAS N/A       50   3  14 VRB6G12    N/A
* WHITEHALL    N/A       59  52  78 N5         N/A
* WISE RIVER   N/A       52  47  83 N3G9       N/A
$$

MTZ009>010-012-014-046-048-049-054-231400-
EAST SLOPES AND CENTRAL MONTANA
CITY           SKY/WX    TMP DP  RH WIND       PRES   REMARKS
CUT BANK       CLOUDY    55  52  90 CALM      30.17R
GREAT FALLS    LGT RAIN  57  55  93 NW17G29   30.13F
HELENA         MOCLDY    63  54  73 CALM      30.22R
MALMSTROM AFB  LGT RAIN  63  55  75 NW17G24   30.17F
* CONRAD       CLOUDY    55  55 100 N/A        N/A
* DEARBORN     N/A       62  57  84 S2G7       N/A
* EAST GLACIER N/A       59  48  67 W18        N/A
* MONARCH      N/A       60  45  58 W6G12      N/A
* ROGERS PASS  N/A       55  52  90 S4G9       N/A
* SAINT MARY   N/A       54  53  96 SE4G15     N/A
* SWEET GRASS  N/A       62  57  84 S13        N/A
* WHITE SULPH  N/A       60  52  75 E7         N/A
$$

MTZ011-013-016-021-035-040-045-047-050-051-231400-
NORTH CENTRAL MONTANA
CITY           SKY/WX    TMP DP  RH WIND       PRES   REMARKS
HAVRE          PTCLDY    63  54  73 E10       30.10F
LEWISTOWN      MOCLDY    66  55  68 SE9       30.16F
* FORT BENTON  CLOUDY    63  54  73 SW9       30.21R
* CHESTER      N/A       64  54  70 SE1        N/A
* DENTON       N/A       62  56  81 W9         N/A
* JUDITH GAP   N/A       58  57  96 S6         N/A
* LOMA         N/A       68  55  63 E8G14      N/A
$$

MTZ017>020-022>027-061-062-231400-
NORTHEAST MONTANA
CITY           SKY/WX    TMP DP  RH WIND       PRES   REMARKS
GLASGOW        PTCLDY    63  57  81 E12       30.17F
GLENDIVE       PTCLDY    64  61  90 NE6       30.22S
JORDAN         PTCLDY    63  59  87 E7        30.17F
SIDNEY         PTCLDY    66  61  84 CALM      30.23S
WOLF POINT     FOG       61  57  87 NE6       30.20F
* BEAVER HILL  N/A       62  59  90 SE9        N/A
* CIRCLE       N/A       64  61  90 NE3        N/A
* LINDSAY DVD  N/A       61  60  97 NE4        N/A
* NAVAJO       N/A       59  58  97 E4         N/A
* SACO         N/A       58  55  90 N/A        N/A
$$

MTZ028>042-056>058-231400-
SOUTHCENTRAL AND SOUTHEAST MONTANA
CITY           SKY/WX    TMP DP  RH WIND       PRES   REMARKS
BAKER          CLEAR     61  59  93 SE7       30.23F
BILLINGS       CLOUDY    63  59  87 E6        30.15F
LIVINGSTON     PTCLDY    55  52  90 S3        30.20S
MILES CITY     CLEAR     63  61  93 CALM      30.20R
* LAUREL APT   CLOUDY    59  54  84 S5         N/A
* ROUNDUP APT  PTCLDY    61  55  81 N/A        N/A
* ALZADA       N/A       64  59  84 NE2        N/A
* HYSHAM       N/A       64  58  81 E4         N/A
* LAME DEER    N/A       65  57  75 S13G19     N/A
* REED POINT   N/A       55  54  96 W2         N/A
* ROSCOE HILL  N/A       58  42  55 N/A        N/A
$$

REGIONAL REPORTS...DAKOTAS
CITY           SKY/WX    TMP DP  RH WIND       PRES   REMARKS
WILLISTON      MOCLDY    68  63  84 E6        30.22F
DICKINSON      CLEAR     64  61  90 SE6       30.22S
CROSBY         CLOUDY    61  61 100 E12       30.27S
TIOGA          MOCLDY    63  63 100 E8        30.29S
WATFORD CITY   FAIR      64  64 100 E6        30.21S
BISMARCK       CLEAR     66  61  84 E7        30.27S
GRAND FORKS    MOCLDY    61  57  87 NW5       30.31R
FARGO          PTCLDY    63  57  81 CALM      30.29S
BUFFALO SD     CLEAR     63  61  93 E7        30.17S
RAPID CITY     PTCLDY    64  55  73 SW5       30.23F
$$

REGIONAL REPORTS...WYOMING/IDAHO/WASHINGTON
CITY           SKY/WX    TMP DP  RH WIND       PRES   REMARKS
GILLETTE       PTCLDY    68  61  78 S23G29    30.25F
SHERIDAN       PTCLDY    64  55  73 SE7       30.19S
CODY           PTCLDY    61  46  58 CALM      30.26R
YELLOWSTONE LA MOCLDY    54  43  67 VRB3      30.42F
SALMON         PTCLDY    57  54  90 CALM      30.22F
MULLAN PASS    CLOUDY    50  46  86 SE9       30.24S
SAND POINT     MOCLDY    61  54  78 N13       30.08F
SPOKANE        MOCLDY    63  54  73 NE5       30.05F
$$

REGIONAL REPORTS...ALBERTA
CITY           SKY/WX    TMP DP  RH WIND       PRES   REMARKS
CALGARY        PTCLDY    55  46  72 SW2       30.11R
LETHBRIDGE     LGT RAIN  57  54  90 VRB5      30.11S
MEDICINE HAT   CLOUDY    66  55  68 N7        30.08F
EDMONTON       FAIR      57  55  93 S5        30.00F
WATERTON GATE  N/A       57  50  78 S10        N/A
CARDSTON       N/A       59  55  87 S3         N/A
MILK RIVER     N/A       59  54  84 NW2        N/A
$$

REGIONAL REPORTS...SASKATCHEWAN
CITY           SKY/WX    TMP DP  RH WIND       PRES   REMARKS
SWIFT CURRENT  CLEAR     61  59  93 SE12      30.19F
MOOSE JAW      FAIR      59  55  87 SE9       30.25S
REGINA         FAIR      63  55  75 SE14      30.28S
VAL MARIE      N/A       61  55  81 E1         N/A
ASSINIBOIA     N/A       61  57  87 SE8        N/A
CORONACH       N/A       63  59  87 E8         N/A

$$



USA.gov is the U.S. government's official web portal to all federal, state and local government web resources and services.